GFSFLT2_250_spd_000.txt.gz
Wind_Speed
66 63 62 58 57 56 51 49 48 49 47 47 45 46 50 59 65 65 67 71 71 74 75 65 53 59 61 55 66 66 57 53
58 55 52 51 48 45 43 43 43 44 42 43 46 47 46 53 55 63 67 77 76 86 82 76 60 66 65 72 66 64 68 61
43 42 41 39 36 38 37 40 40 41 40 38 39 44 46 49 53 52 58 84 81 89 91 89 72 72 66 83 85 76 70 61
34 35 36 35 35 34 37 39 39 38 38 38 39 41 44 48 52 56 60 66 84 92 97 97 86 80 71 70 81 78 66 62
27 29 30 32 34 36 38 39 40 41 42 43 45 46 47 48 52 56 62 67 83 92 96 97 96 86 79 82 76 69 78 70
27 29 31 32 32 33 37 41 44 46 47 48 50 51 51 50 52 54 58 65 74 89 105 103 106 108 102 97 92 81 74 73
21 23 23 22 21 25 31 37 41 43 48 50 53 54 55 57 57 56 56 60 68 76 84 100 106 111 114 109 103 94 79 73
27 30 29 28 27 22 22 23 25 33 38 44 48 53 57 60 62 63 63 60 65 70 76 83 91 98 103 104 95 92 84 76
20 24 21 21 21 19 21 18 23 23 23 26 32 35 43 56 63 66 70 71 67 70 71 79 80 85 85 90 89 86 84 82
35 37 38 36 31 32 31 28 24 23 26 28 31 31 31 36 43 60 71 78 76 73 76 77 78 81 85 89 93 91 88 87
42 42 40 41 42 42 40 38 35 36 29 32 35 32 35 37 43 46 50 72 82 83 80 82 85 84 88 87 95 93 94 90
48 48 48 48 48 52 48 46 44 46 44 45 51 40 45 48 48 52 55 58 73 86 88 88 89 91 93 94 92 97 98 96
50 54 55 57 56 58 60 57 57 58 53 50 55 53 58 60 54 51 55 57 66 81 92 93 95 97 98 100 99 99 101 105
50 54 55 57 60 60 64 65 64 65 65 64 62 65 67 67 67 64 61 60 64 74 87 95 100 104 104 104 108 107 106 105
49 53 53 55 58 63 62 65 69 70 72 74 70 71 70 73 73 68 66 67 68 72 80 95 101 108 111 112 110 111 114 111
56 56 57 57 57 63 70 69 69 74 78 82 84 80 82 80 77 75 75 73 76 74 75 83 97 110 118 118 123 119 117 118
57 60 61 63 65 67 69 76 77 82 88 91 93 93 93 89 87 77 77 76 76 75 78 80 84 95 110 122 126 126 129 122
61 63 65 69 71 75 79 78 85 90 96 100 100 101 99 97 96 87 84 84 81 77 75 80 84 90 101 112 126 131 130 131
65 66 69 72 77 82 82 85 89 96 102 103 102 99 99 100 98 94 88 84 82 78 74 74 80 86 92 105 110 125 135 137
71 73 73 78 79 81 84 89 94 100 107 107 105 104 104 103 102 98 93 88 79 75 72 71 74 80 86 92 99 115 125 135

GFSFLT2_250_spd_003.txt.gz
Wind_Speed
64 61 60 54 51 46 46 45 44 43 41 38 39 37 41 46 49 54 59 53 57 63 72 64 62 56 60 66 56 59 60 59
44 43 42 36 34 36 35 34 33 33 33 33 35 34 39 43 54 56 61 60 57 67 66 70 78 73 69 72 69 59 60 59
27 27 31 30 32 31 28 29 31 31 30 32 34 34 38 43 51 58 65 68 63 66 73 75 81 76 79 62 65 62 58 54
20 21 22 23 24 28 28 29 29 33 31 31 32 31 35 38 43 48 55 60 68 69 74 78 86 92 83 86 78 73 73 64
19 19 18 19 18 19 22 26 30 33 36 38 38 39 38 41 44 48 50 56 58 66 68 76 85 94 94 99 99 95 80 74
26 26 22 20 17 20 19 19 21 23 27 33 38 41 44 46 48 50 54 60 61 62 63 68 91 91 101 98 101 106 99 89
30 34 32 36 29 27 22 23 18 20 22 22 27 30 35 42 46 51 54 58 63 65 70 71 75 92 99 105 106 108 106 88
33 33 34 32 32 33 30 26 28 20 25 22 16 23 25 29 36 47 52 57 63 68 71 74 77 78 91 97 110 113 113 109
39 37 36 36 33 35 35 32 30 32 35 36 35 33 29 34 36 34 38 51 60 68 74 77 79 80 82 84 97 112 117 120
38 39 38 36 38 37 38 36 35 38 41 39 40 40 42 43 41 42 45 45 51 63 72 78 83 86 86 84 87 91 98 100
37 37 37 40 40 40 39 41 42 42 44 47 49 50 55 57 56 52 50 50 51 59 59 66 80 88 90 90 85 88 88 94
35 35 37 37 41 41 40 42 44 43 44 46 52 57 62 64 66 67 64 58 55 58 63 68 67 76 87 95 95 91 92 92
34 36 38 41 44 44 47 47 52 54 55 56 56 61 65 69 72 71 70 67 65 62 62 68 74 77 77 86 97 99 95 96
41 41 42 44 49 52 55 54 57 59 60 60 60 66 69 72 76 80 77 74 72 72 71 66 74 82 85 85 90 101 104 100
46 42 46 48 50 56 59 60 62 65 65 64 65 69 75 80 80 85 87 84 82 79 77 75 72 77 86 88 89 93 104 109
52 54 58 59 60 64 64 66 66 67 71 73 75 79 84 87 88 93 95 94 89 84 81 82 80 78 81 89 90 93 95 104
56 59 66 70 70 68 67 67 70 73 75 78 82 88 89 92 101 100 102 99 89 85 81 81 82 80 80 81 86 87 92 99
66 66 66 69 71 73 73 73 76 78 81 82 92 96 97 100 109 106 112 101 92 85 82 79 76 77 75 74 79 84 86 93
68 68 69 74 76 75 78 79 81 81 82 89 99 105 106 110 119 114 118 100 94 91 84 81 76 70 69 69 71 74 81 87
69 72 74 78 83 86 88 88 89 90 90 95 102 106 114 115 120 124 113 100 94 91 85 79 71 68 67 66 66 69 74 80

GFSFLT2_250_spd_006.txt.gz
Wind_Speed
50 53 53 45 44 44 38 32 30 30 31 30 32 35 36 38 39 43 47 48 54 59 55 64 68 68 64 63 60 44 47 49
40 40 33 28 31 28 25 26 25 24 24 23 21 24 28 32 33 40 46 52 55 54 56 59 67 71 67 66 61 55 56 59
27 22 22 22 21 19 20 21 21 21 23 23 24 25 27 29 33 36 42 47 55 60 60 60 73 70 72 75 73 64 66 66
24 25 24 20 18 18 19 18 20 21 24 26 25 27 28 30 32 35 40 48 47 57 55 65 73 74 71 81 79 80 77 74
34 32 33 36 32 31 30 30 31 25 29 29 25 25 26 30 33 36 40 45 49 52 55 62 67 71 75 81 89 84 76 70
28 30 28 29 29 25 22 21 21 21 24 25 23 28 28 33 30 31 38 44 50 54 58 65 68 75 78 73 84 97 85 81
25 25 26 24 24 22 20 19 19 16 16 20 19 17 21 25 27 29 35 36 40 47 56 63 66 70 75 80 79 80 97 91
25 25 23 22 21 23 24 23 22 20 22 20 24 26 25 31 30 28 27 27 32 37 46 56 63 72 76 74 76 82 91 99
27 26 27 26 26 25 24 24 26 29 30 29 31 32 32 37 40 40 37 33 35 36 44 52 57 63 73 79 86 79 85 93
26 24 26 29 29 31 34 34 35 35 36 35 37 39 38 38 39 40 43 47 49 48 49 45 53 59 67 71 79 85 88 89
27 28 28 30 32 34 36 38 41 39 42 43 44 44 43 40 43 46 50 51 51 54 60 56 53 51 57 67 73 79 89 93
30 31 31 33 35 37 41 45 49 49 47 48 50 51 51 49 49 51 53 57 59 61 64 65 65 62 58 58 66 72 81 90
32 36 38 39 40 43 47 49 51 49 46 46 47 50 54 54 53 54 59 63 66 68 72 74 75 71 72 64 64 71 76 82
40 40 43 42 44 47 49 51 53 54 55 55 56 59 59 60 61 62 66 71 73 77 82 84 83 84 81 75 70 72 76 81
47 47 47 46 50 52 54 57 62 65 65 66 66 65 68 71 70 74 75 74 80 83 87 92 91 89 88 81 76 73 79 85
54 55 59 60 63 66 63 64 69 70 68 68 70 72 73 76 76 78 79 82 83 86 92 95 96 96 90 84 77 76 80 83
62 65 67 68 68 71 72 72 76 76 77 78 80 81 83 86 88 88 89 92 94 95 99 102 102 98 92 86 82 81 81 81
67 69 68 71 71 71 76 78 77 79 81 83 85 88 91 95 99 101 100 102 102 105 106 105 104 92 89 82 82 82 83 80
70 72 72 72 73 77 80 83 85 88 90 93 97 97 97 101 103 105 108 110 112 114 112 110 97 88 84 81 77 77 77 78
75 75 76 77 81 85 87 91 96 99 102 104 106 109 108 109 112 114 118 121 121 118 113 99 92 88 82 77 71 69 69 69

GFSFLT2_250_spd_009.txt.gz
Wind_Speed
47 43 40 38 37 39 37 36 34 31 31 31 29 29 29 28 29 33 38 40 41 42 47 53 57 54 56 60 67 60 60 54
27 25 25 23 19 20 19 19 20 19 19 20 22 22 23 25 26 27 28 33 37 42 45 52 57 53 55 60 63 57 58 51
7 9 7 5 4 4 7 12 14 13 14 14 14 16 19 24 25 26 28 30 31 35 41 51 54 57 58 59 66 63 60 61
14 15 15 14 14 12 11 19 22 24 24 26 25 26 26 20 21 21 27 31 33 35 39 41 51 54 55 57 69 70 72 67
20 21 21 21 22 21 21 20 19 19 19 20 20 21 20 22 23 24 22 19 26 35 39 41 47 48 59 60 58 75 79 79
20 19 21 22 22 21 20 18 16 14 15 17 14 16 16 15 17 19 19 21 21 19 24 36 44 50 52 58 65 60 78 80
18 19 18 19 20 21 22 21 21 22 22 19 20 19 20 22 25 26 25 25 23 20 20 21 28 35 44 58 63 70 71 74
20 20 18 21 24 24 26 27 28 27 29 29 27 26 26 27 27 26 26 24 21 25 26 21 17 22 28 37 47 56 69 78
21 22 22 23 25 26 26 28 31 35 37 37 34 32 32 35 34 32 32 32 32 32 32 30 33 36 30 29 30 37 51 61
25 25 24 26 27 30 32 33 33 34 37 37 35 34 34 36 37 38 40 42 42 40 41 43 44 43 43 42 44 41 40 49
31 33 34 33 35 35 36 38 41 41 40 42 42 43 44 44 45 47 47 49 50 51 52 53 55 54 53 53 52 52 52 52
35 37 38 38 39 42 46 47 48 50 51 50 50 52 53 53 51 51 51 53 56 59 60 61 63 64 64 64 63 61 60 59
42 41 39 40 43 47 52 56 57 58 58 53 53 56 57 57 59 60 60 60 62 65 68 68 68 68 70 70 70 70 68 64
48 49 47 47 49 53 58 62 61 62 62 60 60 62 64 65 66 68 67 67 69 73 76 78 78 79 80 81 81 78 74 74
55 57 59 61 62 62 62 64 64 66 67 69 70 71 71 72 75 76 78 80 82 81 82 86 90 90 89 89 89 87 86 86
60 62 65 67 66 67 67 68 69 70 73 76 79 81 81 84 86 87 89 90 90 90 91 92 93 97 97 98 99 101 95 89
61 65 69 70 71 70 71 73 76 78 80 83 86 88 91 93 96 99 101 103 103 102 102 102 103 104 102 101 104 103 97 93
65 67 67 70 72 75 77 79 82 86 90 92 95 97 99 101 102 104 107 110 110 107 104 103 101 101 100 100 98 97 94 90
66 67 72 76 78 81 85 89 93 97 99 101 103 105 106 108 113 112 110 109 108 104 101 100 96 95 96 95 94 90 87 86
72 76 81 83 86 90 94 97 102 105 110 112 113 112 112 115 108 106 104 102 101 97 95 92 92 91 90 87 84 84 83 82